Weather History for KMUO - September, 2012

Change the Weather History Date:

Tuesday, September 25, 2012

  Actual Average Record
Temperature  
Mean Temperature 66 °F 60 °F  
Max Temperature 78 °F 76 °F 99 °F (2001)
Min Temperature 53 °F 43 °F 9 °F (1926)
Degree Days  
Heating Degree Days 0 6  
Month to date heating degree days 34 83  
Cooling Degree Days 1 1  
Month to date cooling degree days 57 85  
Growing Degree Days 16 (Base 50)    
Moisture  
Dew Point 42 °F    
Average Humidity 46    
Maximum Humidity 63    
Minimum Humidity 28    
Precipitation  
Precipitation T in 0.02 in 0.50 in (1973)
Month to date precipitation T 0.41  
Sea Level Pressure  
Sea Level Pressure 29.94 in    
Wind  
Wind Speed 2 mph (NNW)    
Max Wind Speed 13 mph    
Max Gust Speed 17 mph    
Visibility 9 miles    
Events      
T = Trace of Precipitation, MM = Missing Value Source: NWS Daily Summary

Daily Weather History Graph

Daily Weather History Graph

Search for Another Location

Airport or City:

Trip Planner

Search our weather history database for the weather conditions in past years. The results will help you decide how hot, cold, wet, or windy it might be!

Date:

Astronomy

Sep. 25, 2012 Rise Set
Actual Time 7:34 AM MDT 7:34 PM MDT
Civil Twilight 7:06 AM MDT 8:02 PM MDT
Nautical Twilight 6:33 AM MDT 8:35 PM MDT
Astronomical Twilight 5:59 AM MDT 9:09 PM MDT
Moon 5:07 PM MDT 2:54 AM MDT
Length of Visible Light 12h 56m
Length of Day
11h 59m
Waxing Gibbous, 80% of the Moon is Illuminated
Sep 25
Waxing Gibbous
Sep 29
Full
Oct 8
Last Quarter
Oct 15
New
Oct 21
First Quarter

Hourly Weather History & Observations

Time (MDT) Temp. Dew Point Humidity Pressure Visibility Wind Dir Wind Speed Gust Speed Precip Events Conditions
12:55 AM 53.2 °F 39.4 °F 59% 29.95 in 10.0 mi Calm Calm - N/A   Overcast
1:55 AM 54.7 °F 39.0 °F 56% 29.95 in 10.0 mi Calm Calm - N/A   Overcast
2:55 AM 54.5 °F 38.7 °F 55% 29.94 in 10.0 mi Calm Calm - N/A   Overcast
3:55 AM 55.9 °F 40.6 °F 56% 29.93 in 10.0 mi Calm Calm - N/A   Overcast
4:55 AM 56.7 °F 40.6 °F 55% 29.92 in 10.0 mi Calm Calm - N/A   Overcast
5:55 AM 54.7 °F 42.3 °F 63% 29.93 in 10.0 mi Calm Calm - N/A   Overcast
6:55 AM 53.6 °F 41.2 °F 63% 29.94 in 10.0 mi South 3.5 mph - N/A   Overcast
7:55 AM 54.7 °F 41.7 °F 62% 29.96 in 10.0 mi Calm Calm - N/A   Overcast
8:55 AM 57.4 °F 41.2 °F 55% 29.98 in 10.0 mi WSW 4.6 mph - N/A   Overcast
9:55 AM 59.7 °F 44.2 °F 57% 29.99 in 10.0 mi East 3.5 mph - 0.00 in   Mostly Cloudy
10:25 AM 62.6 °F 42.8 °F 48% 29.99 in 10.0 mi Calm Calm - N/A   Mostly Cloudy
10:55 AM 63.9 °F 43.5 °F 48% 29.99 in 10.0 mi North 3.5 mph - N/A   Overcast
11:55 AM 69.1 °F 43.5 °F 40% 29.98 in 6.0 mi NNW 9.2 mph - 0.00 in   Haze
1:55 PM 74.8 °F 43.9 °F 33% 29.94 in 6.0 mi WNW 9.2 mph - N/A   Haze
2:55 PM 76.6 °F 43.0 °F 30% 29.92 in 6.0 mi NNW 6.9 mph - N/A   Haze
3:55 PM 78.1 °F 42.8 °F 28% 29.91 in 6.0 mi NW 12.7 mph 17.3 mph N/A   Haze
4:55 PM 77.4 °F 42.4 °F 29% 29.89 in 6.0 mi NW 6.9 mph - N/A   Haze
5:55 PM 77.9 °F 42.1 °F 28% 29.89 in 6.0 mi NW 6.9 mph - N/A   Haze
6:55 PM 76.6 °F 42.6 °F 30% 29.91 in 6.0 mi NNW 9.2 mph - N/A   Haze
7:55 PM 72.9 °F 42.4 °F 33% 29.91 in 10.0 mi North 4.6 mph - N/A   Clear
8:55 PM 66.7 °F 41.9 °F 40% 29.92 in 10.0 mi Calm Calm - N/A   Clear
9:55 PM 63.7 °F 40.5 °F 43% 29.94 in 10.0 mi NNW 4.6 mph - N/A   Clear
10:55 PM 59.5 °F 41.9 °F 52% 29.94 in 10.0 mi ENE 3.5 mph - N/A   Clear
11:55 PM 58.1 °F 40.6 °F 52% 29.95 in 10.0 mi Calm Calm - N/A   Clear